Time,TemperatureF,DewpointF,PressureIn,WindDirection,WindDirectionDegrees,WindSpeedMPH,WindSpeedGustMPH,Humidity,HourlyPrecipIn,Conditions,Clouds,dailyrainin,SoftwareType,DateUTC
2013-01-26 00:03:00,23.0,21.0,-100.00,West,260,1.0,3.0,89,0.00,,,-99.99,,2013-01-26 05:03:00,
2013-01-26 00:12:00,24.0,21.0,-100.00,NW,305,0.0,4.0,89,0.00,,,-99.99,,2013-01-26 05:12:00,
2013-01-26 00:23:00,24.0,21.0,-100.00,West,270,2.0,6.0,89,0.55,,,-99.99,,2013-01-26 05:23:00,
2013-01-26 00:33:00,24.0,21.0,-100.00,West,275,1.0,3.0,89,0.55,,,-99.99,,2013-01-26 05:33:00,
2013-01-26 00:41:00,24.0,21.0,-100.00,WSW,240,0.0,3.0,89,0.00,,,-99.99,,2013-01-26 05:41:00,
2013-01-26 00:52:00,23.0,21.0,-100.00,SW,215,1.0,2.0,89,0.00,,,-99.99,,2013-01-26 05:52:00,
2013-01-26 01:03:00,23.0,21.0,-100.00,SW,220,0.0,2.0,89,0.00,,,-99.99,,2013-01-26 06:03:00,
2013-01-26 01:12:00,23.0,21.0,-100.00,SSW,200,1.0,2.0,89,0.00,,,-99.99,,2013-01-26 06:12:00,
2013-01-26 01:21:00,23.0,21.0,-100.00,SW,230,1.0,3.0,90,0.00,,,-99.99,,2013-01-26 06:21:00,
2013-01-26 01:32:00,23.0,20.0,-100.00,SW,225,0.0,1.0,90,0.00,,,-99.99,,2013-01-26 06:32:00,
2013-01-26 01:42:00,23.0,20.0,-100.00,SW,220,1.0,3.0,90,0.00,,,-99.99,,2013-01-26 06:42:00,
2013-01-26 01:52:00,23.0,20.0,-100.00,SW,230,1.0,2.0,90,0.00,,,-99.99,,2013-01-26 06:52:00,
2013-01-26 02:02:00,23.0,20.0,-100.00,SW,225,2.0,3.0,90,0.00,,,-99.99,,2013-01-26 07:02:00,
2013-01-26 02:12:00,23.0,21.0,-100.00,SW,235,2.0,3.0,90,0.00,,,-99.99,,2013-01-26 07:12:00,
2013-01-26 02:21:00,23.0,20.0,-100.00,WSW,250,2.0,4.0,90,0.00,,,-99.99,,2013-01-26 07:21:00,
2013-01-26 02:33:00,23.0,21.0,-100.00,WSW,255,2.0,3.0,91,0.00,,,-99.99,,2013-01-26 07:33:00,
2013-01-26 02:41:00,23.0,21.0,-100.00,WSW,255,2.0,3.0,90,0.00,,,-99.99,,2013-01-26 07:41:00,
2013-01-26 02:51:00,23.0,21.0,-100.00,West,270,2.0,4.0,90,0.00,,,-99.99,,2013-01-26 07:51:00,
2013-01-26 03:02:00,23.0,21.0,-100.00,West,265,3.0,4.0,90,0.00,,,-99.99,,2013-01-26 08:02:00,
2013-01-26 03:11:00,24.0,22.0,-100.00,West,270,4.0,6.0,90,0.00,,,-99.99,,2013-01-26 08:11:00,
2013-01-26 03:21:00,24.0,22.0,-100.00,WNW,290,4.0,7.0,89,0.00,,,-99.99,,2013-01-26 08:21:00,
2013-01-26 03:32:00,25.0,22.0,-100.00,WNW,300,6.0,8.0,88,0.00,,,-99.99,,2013-01-26 08:32:00,
2013-01-26 03:42:00,25.0,22.0,-100.00,NW,310,7.0,11.0,87,0.00,,,-99.99,,2013-01-26 08:42:00,
2013-01-26 03:53:00,25.0,22.0,-100.00,NW,305,7.0,11.0,87,0.00,,,-99.99,,2013-01-26 08:53:00,
2013-01-26 04:02:00,25.0,22.0,-100.00,NW,305,7.0,11.0,86,0.00,,,-99.99,,2013-01-26 09:02:00,
2013-01-26 04:11:00,25.0,22.0,-100.00,NW,315,7.0,12.0,86,0.00,,,-99.99,,2013-01-26 09:11:00,
2013-01-26 04:22:00,25.0,22.0,-100.00,NW,320,8.0,11.0,86,0.00,,,-99.99,,2013-01-26 09:22:00,
2013-01-26 04:32:00,25.0,22.0,-100.00,NW,310,9.0,12.0,86,0.00,,,-99.99,,2013-01-26 09:32:00,
2013-01-26 04:42:00,25.0,22.0,-100.00,NW,315,7.0,11.0,86,0.00,,,-99.99,,2013-01-26 09:42:00,
2013-01-26 04:51:00,25.0,22.0,-100.00,NW,315,7.0,11.0,85,0.00,,,-99.99,,2013-01-26 09:51:00,
2013-01-26 05:01:00,25.0,21.0,-100.00,NW,320,7.0,11.0,85,0.00,,,-99.99,,2013-01-26 10:01:00,
2013-01-26 05:12:00,25.0,21.0,-100.00,NW,325,7.0,11.0,84,0.00,,,-99.99,,2013-01-26 10:12:00,
2013-01-26 05:21:00,25.0,21.0,-100.00,NW,325,6.0,9.0,84,0.00,,,-99.99,,2013-01-26 10:21:00,
2013-01-26 05:32:00,25.0,21.0,-100.00,NW,320,7.0,12.0,83,0.00,,,-99.99,,2013-01-26 10:32:00,
2013-01-26 05:42:00,25.0,21.0,-100.00,NW,320,6.0,11.0,83,0.00,,,-99.99,,2013-01-26 10:42:00,
2013-01-26 05:52:00,25.0,20.0,-100.00,NW,315,6.0,11.0,83,0.00,,,-99.99,,2013-01-26 10:52:00,
2013-01-26 06:01:00,25.0,20.0,-100.00,NW,310,6.0,9.0,83,0.00,,,-99.99,,2013-01-26 11:01:00,
2013-01-26 06:12:00,25.0,20.0,-100.00,NW,315,6.0,9.0,83,0.00,,,-99.99,,2013-01-26 11:12:00,
2013-01-26 06:22:00,25.0,20.0,-100.00,NW,320,6.0,11.0,82,0.00,,,-99.99,,2013-01-26 11:22:00,
2013-01-26 06:32:00,25.0,20.0,-100.00,NW,310,7.0,12.0,82,0.00,,,-99.99,,2013-01-26 11:32:00,
2013-01-26 06:42:00,24.0,20.0,-100.00,NW,320,6.0,9.0,83,0.00,,,-99.99,,2013-01-26 11:42:00,
2013-01-26 06:52:00,24.0,20.0,-100.00,NW,320,6.0,8.0,83,0.00,,,-99.99,,2013-01-26 11:52:00,
2013-01-26 07:02:00,24.0,20.0,-100.00,NW,325,6.0,9.0,83,0.00,,,-99.99,,2013-01-26 12:02:00,
2013-01-26 07:12:00,24.0,20.0,-100.00,NW,325,7.0,11.0,82,0.55,,,-99.99,,2013-01-26 12:12:00,
2013-01-26 07:22:00,24.0,20.0,-100.00,NNW,330,7.0,10.0,83,0.00,,,-99.99,,2013-01-26 12:22:00,
2013-01-26 07:33:00,24.0,20.0,-100.00,NW,325,6.0,9.0,83,0.00,,,-99.99,,2013-01-26 12:33:00,
2013-01-26 07:42:00,24.0,20.0,-100.00,NW,325,7.0,11.0,83,0.00,,,-99.99,,2013-01-26 12:42:00,
2013-01-26 07:52:00,24.0,20.0,-100.00,NNW,330,5.0,9.0,83,0.00,,,-99.99,,2013-01-26 12:52:00,
2013-01-26 08:03:00,24.0,20.0,-100.00,NNW,345,5.0,9.0,83,0.00,,,-99.99,,2013-01-26 13:03:00,
2013-01-26 08:12:00,24.0,20.0,-100.00,NNW,335,3.0,7.0,82,0.00,,,-99.99,,2013-01-26 13:12:00,
2013-01-26 08:22:00,24.0,19.0,-100.00,NNW,340,4.0,8.0,80,0.00,,,-99.99,,2013-01-26 13:22:00,
2013-01-26 08:33:00,24.0,19.0,-100.00,NNW,340,4.0,9.0,79,0.00,,,-99.99,,2013-01-26 13:33:00,
2013-01-26 08:42:00,24.0,19.0,-100.00,NNW,330,4.0,9.0,79,0.00,,,-99.99,,2013-01-26 13:42:00,
2013-01-26 08:52:00,24.0,19.0,-100.00,NNW,340,4.0,8.0,79,0.00,,,-99.99,,2013-01-26 13:52:00,
2013-01-26 09:03:00,24.0,18.0,-100.00,NNW,340,4.0,9.0,78,0.00,,,-99.99,,2013-01-26 14:03:00,
2013-01-26 09:12:00,24.0,19.0,-100.00,NNW,345,2.0,7.0,79,0.00,,,-99.99,,2013-01-26 14:12:00,
2013-01-26 09:22:00,24.0,19.0,-100.00,NNW,345,2.0,6.0,78,0.00,,,-99.99,,2013-01-26 14:22:00,
2013-01-26 09:32:00,25.0,19.0,-100.00,NW,315,3.0,5.0,78,0.00,,,-99.99,,2013-01-26 14:32:00,
2013-01-26 09:43:00,25.0,19.0,-100.00,NW,325,2.0,6.0,78,0.00,,,-99.99,,2013-01-26 14:43:00,
2013-01-26 09:52:00,25.0,19.0,-100.00,NW,325,5.0,6.0,77,0.00,,,-99.99,,2013-01-26 14:52:00,
2013-01-26 10:03:00,25.0,18.0,-100.00,NW,315,6.0,9.0,76,0.00,,,-99.99,,2013-01-26 15:03:00,
2013-01-26 10:12:00,25.0,18.0,-100.00,North,350,6.0,10.0,76,0.00,,,-99.99,,2013-01-26 15:12:00,
2013-01-26 10:22:00,25.0,19.0,-100.00,NNW,345,5.0,8.0,76,0.00,,,-99.99,,2013-01-26 15:22:00,
2013-01-26 10:32:00,25.0,19.0,-100.00,North,350,5.0,8.0,76,0.00,,,-99.99,,2013-01-26 15:32:00,
2013-01-26 10:43:00,25.0,18.0,-100.00,NW,325,6.0,9.0,74,0.00,,,-99.99,,2013-01-26 15:43:00,
2013-01-26 10:52:00,26.0,19.0,-100.00,NNW,335,6.0,9.0,75,0.00,,,-99.99,,2013-01-26 15:52:00,
2013-01-26 11:02:00,26.0,19.0,-100.00,North,350,4.0,8.0,74,0.00,,,-99.99,,2013-01-26 16:02:00,
2013-01-26 11:12:00,25.0,18.0,-100.00,NNW,340,6.0,9.0,74,0.55,,,-99.99,,2013-01-26 16:12:00,
2013-01-26 11:22:00,25.0,19.0,-100.00,North,350,4.0,7.0,75,0.00,,,-99.99,,2013-01-26 16:22:00,
2013-01-26 11:33:00,26.0,19.0,-100.00,NNW,335,6.0,10.0,75,0.00,,,-99.99,,2013-01-26 16:33:00,
2013-01-26 11:42:00,26.0,19.0,-100.00,NNW,345,6.0,9.0,75,0.00,,,-99.99,,2013-01-26 16:42:00,
2013-01-26 11:53:00,26.0,19.0,-100.00,North,0,5.0,9.0,75,0.00,,,-99.99,,2013-01-26 16:53:00,
2013-01-26 12:03:00,26.0,19.0,-100.00,NW,320,5.0,11.0,75,0.00,,,-99.99,,2013-01-26 17:03:00,
2013-01-26 12:13:00,26.0,19.0,-100.00,North,355,4.0,9.0,76,0.00,,,-99.99,,2013-01-26 17:13:00,
2013-01-26 12:22:00,25.0,19.0,-100.00,North,355,6.0,12.0,74,0.00,,,-99.99,,2013-01-26 17:22:00,
2013-01-26 12:33:00,25.0,18.0,-100.00,North,355,6.0,9.0,74,0.00,,,-99.99,,2013-01-26 17:33:00,
2013-01-26 12:42:00,26.0,18.0,-100.00,NNW,330,7.0,12.0,73,0.00,,,-99.99,,2013-01-26 17:42:00,
2013-01-26 12:52:00,26.0,18.0,-100.00,NNW,340,7.0,12.0,71,0.00,,,-99.99,,2013-01-26 17:52:00,
2013-01-26 13:03:00,26.0,18.0,-100.00,NNW,335,7.0,11.0,70,0.00,,,-99.99,,2013-01-26 18:03:00,
2013-01-26 13:12:00,25.0,18.0,-100.00,NNW,335,9.0,12.0,72,0.55,,,-99.99,,2013-01-26 18:12:00,
2013-01-26 13:22:00,26.0,18.0,-100.00,NW,315,8.0,14.0,71,0.00,,,-99.99,,2013-01-26 18:22:00,
2013-01-26 13:33:00,26.0,18.0,-100.00,NNW,340,7.0,12.0,72,0.55,,,-99.99,,2013-01-26 18:33:00,
2013-01-26 13:42:00,27.0,18.0,-100.00,NW,315,7.0,11.0,69,0.00,,,-99.99,,2013-01-26 18:42:00,
2013-01-26 13:52:00,27.0,18.0,-100.00,NW,310,4.0,10.0,70,0.00,,,-99.99,,2013-01-26 18:52:00,
2013-01-26 14:03:00,29.0,18.0,-100.00,NW,310,5.0,9.0,62,0.00,,,-99.99,,2013-01-26 19:03:00,
2013-01-26 14:12:00,28.0,15.0,-100.00,NNW,340,6.0,9.0,58,0.00,,,-99.99,,2013-01-26 19:12:00,
2013-01-26 14:22:00,27.0,15.0,-100.00,NW,310,6.0,12.0,60,0.00,,,-99.99,,2013-01-26 19:22:00,
2013-01-26 14:33:00,27.0,16.0,-100.00,NW,320,7.0,10.0,62,0.00,,,-99.99,,2013-01-26 19:33:00,
2013-01-26 14:42:00,28.0,17.0,-100.00,WNW,295,6.0,9.0,61,0.00,,,-99.99,,2013-01-26 19:42:00,
2013-01-26 14:52:00,28.0,16.0,-100.00,NW,325,8.0,12.0,59,0.00,,,-99.99,,2013-01-26 19:52:00,
2013-01-26 15:02:00,29.0,16.0,-100.00,West,280,8.0,11.0,57,0.00,,,-99.99,,2013-01-26 20:02:00,
2013-01-26 15:11:00,29.0,15.0,-100.00,NW,310,10.0,12.0,56,0.00,,,-99.99,,2013-01-26 20:11:00,
2013-01-26 15:22:00,28.0,16.0,-100.00,NW,320,5.0,11.0,59,0.00,,,-99.99,,2013-01-26 20:22:00,
2013-01-26 15:42:00,29.0,15.0,-100.00,NNW,330,6.0,9.0,55,0.00,,,-99.99,,2013-01-26 20:42:00,
2013-01-26 15:52:00,29.0,15.0,-100.00,NNW,335,4.0,9.0,55,0.00,,,-99.99,,2013-01-26 20:52:00,
2013-01-26 16:03:00,28.0,15.0,-100.00,NW,325,7.0,11.0,57,0.00,,,-99.99,,2013-01-26 21:03:00,
2013-01-26 16:12:00,28.0,14.0,-100.00,NW,315,8.0,11.0,55,0.00,,,-99.99,,2013-01-26 21:12:00,
2013-01-26 16:22:00,29.0,16.0,-100.00,NW,310,4.0,10.0,57,0.00,,,-99.99,,2013-01-26 21:22:00,
2013-01-26 16:32:00,30.0,15.0,-100.00,West,280,6.0,9.0,53,0.00,,,-99.99,,2013-01-26 21:32:00,
2013-01-26 16:42:00,30.0,15.0,-100.00,NW,305,6.0,11.0,53,0.00,,,-99.99,,2013-01-26 21:42:00,
2013-01-26 16:52:00,29.0,15.0,-100.00,North,350,6.0,8.0,55,0.00,,,-99.99,,2013-01-26 21:52:00,
2013-01-26 17:02:00,28.0,14.0,-100.00,NNW,330,6.0,9.0,55,0.00,,,-99.99,,2013-01-26 22:02:00,
2013-01-26 17:12:00,28.0,14.0,-100.00,NW,305,4.0,8.0,54,0.00,,,-99.99,,2013-01-26 22:12:00,
2013-01-26 17:22:00,28.0,15.0,-100.00,NW,310,6.0,9.0,57,0.00,,,-99.99,,2013-01-26 22:22:00,
2013-01-26 17:32:00,28.0,15.0,-100.00,NNE,15,4.0,7.0,58,0.00,,,-99.99,,2013-01-26 22:32:00,
2013-01-26 17:42:00,27.0,15.0,-100.00,North,0,4.0,9.0,59,0.00,,,-99.99,,2013-01-26 22:42:00,
2013-01-26 17:52:00,27.0,16.0,-100.00,NNE,15,3.0,6.0,61,0.00,,,-99.99,,2013-01-26 22:52:00,
2013-01-26 18:02:00,27.0,15.0,-100.00,NNE,20,3.0,5.0,60,0.00,,,-99.99,,2013-01-26 23:02:00,
2013-01-26 18:12:00,27.0,17.0,-100.00,North,5,4.0,6.0,64,0.00,,,-99.99,,2013-01-26 23:12:00,
2013-01-26 18:22:00,27.0,15.0,-100.00,North,0,4.0,7.0,61,0.00,,,-99.99,,2013-01-26 23:22:00,
2013-01-26 18:32:00,27.0,16.0,-100.00,NNE,20,2.0,6.0,63,0.00,,,-99.99,,2013-01-26 23:32:00,
2013-01-26 18:42:00,26.0,16.0,-100.00,NW,325,2.0,6.0,64,0.00,,,-99.99,,2013-01-26 23:42:00,
2013-01-26 18:52:00,27.0,17.0,-100.00,NW,320,4.0,6.0,65,0.00,,,-99.99,,2013-01-26 23:52:00,
2013-01-26 19:02:00,26.0,17.0,-100.00,North,0,1.0,5.0,66,0.00,,,-99.99,,2013-01-27 00:02:00,
2013-01-26 19:11:00,26.0,16.0,-100.00,NNE,15,2.0,6.0,63,0.00,,,-99.99,,2013-01-27 00:11:00,
2013-01-26 19:21:00,26.0,16.0,-100.00,NNE,15,1.0,3.0,64,0.00,,,-99.99,,2013-01-27 00:21:00,
2013-01-26 19:32:00,26.0,16.0,-100.00,NE,50,1.0,3.0,64,0.00,,,-99.99,,2013-01-27 00:32:00,
2013-01-26 19:42:00,26.0,15.0,-100.00,NNE,30,0.0,2.0,64,0.00,,,-99.99,,2013-01-27 00:42:00,
2013-01-26 19:51:00,25.0,15.0,-100.00,NE,40,0.0,2.0,65,0.00,,,-99.99,,2013-01-27 00:51:00,
2013-01-26 20:01:00,25.0,15.0,-100.00,ENE,65,0.0,2.0,63,0.00,,,-99.99,,2013-01-27 01:01:00,
2013-01-26 20:11:00,24.0,15.0,-100.00,ENE,65,0.0,2.0,65,0.00,,,-99.99,,2013-01-27 01:11:00,
2013-01-26 20:22:00,24.0,15.0,-100.00,NE,45,0.0,0.0,67,0.00,,,-99.99,,2013-01-27 01:22:00,
2013-01-26 20:32:00,24.0,15.0,-100.00,NE,40,0.0,0.0,67,0.00,,,-99.99,,2013-01-27 01:32:00,
2013-01-26 20:42:00,24.0,15.0,-100.00,SW,215,0.0,3.0,68,0.00,,,-99.99,,2013-01-27 01:42:00,
2013-01-26 20:52:00,23.0,14.0,-100.00,WNW,300,0.0,1.0,69,0.00,,,-99.99,,2013-01-27 01:52:00,
2013-01-26 21:01:00,22.0,14.0,-100.00,SSW,195,0.0,3.0,71,0.00,,,-99.99,,2013-01-27 02:01:00,
2013-01-26 21:12:00,21.0,14.0,-100.00,South,190,0.0,1.0,74,0.00,,,-99.99,,2013-01-27 02:12:00,
2013-01-26 21:22:00,20.0,13.0,-100.00,ESE,120,2.0,3.0,74,0.00,,,-99.99,,2013-01-27 02:22:00,
2013-01-26 21:32:00,18.0,12.0,-100.00,ESE,105,2.0,4.0,76,0.00,,,-99.99,,2013-01-27 02:32:00,
2013-01-26 21:42:00,17.0,12.0,-100.00,SE,145,3.0,4.0,78,0.00,,,-99.99,,2013-01-27 02:42:00,
2013-01-26 21:52:00,18.0,12.0,-100.00,SE,130,3.0,4.0,79,0.00,,,-99.99,,2013-01-27 02:52:00,
2013-01-26 22:02:00,19.0,14.0,-100.00,SE,140,1.0,4.0,80,0.00,,,-99.99,,2013-01-27 03:02:00,
2013-01-26 22:11:00,19.0,14.0,-100.00,SSE,155,1.0,2.0,81,0.00,,,-99.99,,2013-01-27 03:11:00,
2013-01-26 22:21:00,20.0,15.0,-100.00,SSE,160,1.0,2.0,82,0.00,,,-99.99,,2013-01-27 03:21:00,
2013-01-26 22:32:00,20.0,16.0,-100.00,SSE,155,2.0,2.0,82,0.00,,,-99.99,,2013-01-27 03:32:00,
2013-01-26 22:42:00,20.0,16.0,-100.00,SSE,155,1.0,2.0,82,0.00,,,-99.99,,2013-01-27 03:42:00,
2013-01-26 22:51:00,20.0,16.0,-100.00,SSE,155,1.0,2.0,83,0.00,,,-99.99,,2013-01-27 03:51:00,
2013-01-26 23:02:00,20.0,16.0,-100.00,SSE,155,0.0,0.0,82,0.00,,,-99.99,,2013-01-27 04:02:00,
2013-01-26 23:11:00,21.0,16.0,-100.00,WNW,290,0.0,2.0,82,0.00,,,-99.99,,2013-01-27 04:11:00,
2013-01-26 23:21:00,21.0,16.0,-100.00,WSW,245,1.0,3.0,81,0.00,,,-99.99,,2013-01-27 04:21:00,
2013-01-26 23:32:00,20.0,15.0,-100.00,SSW,195,1.0,2.0,81,0.00,,,-99.99,,2013-01-27 04:32:00,
2013-01-26 23:41:00,20.0,15.0,-100.00,South,190,3.0,3.0,83,0.00,,,-99.99,,2013-01-27 04:41:00,
2013-01-26 23:51:00,19.0,15.0,-100.00,SSW,200,3.0,4.0,83,0.00,,,-99.99,,2013-01-27 04:51:00,